Location: Hysolar-Haus
(48.7436°N, 9.0965°E)
Time: 14:00:59
(UTC+00:00)

Daily predictions for brighter satellites

Satellite Brightness Start Highest point End
(mag) Time Altitude Azimuth Time Altitude Azimuth Time Altitude Azimuth
Cosmos 2278 Rocket 2.8 16:42:53 10° S 16:48:04 38° ESE 16:53:17 10° NE
Unknown 4.2 16:45:20 10° W 16:49:23 48° N 16:53:25 10° ENE
CZ-4 R/B 2.3 16:47:14 10° SE 16:50:58 31° ENE 16:54:42 10° N
Unknown 4.2 16:47:01 10° W 16:51:02 48° N 16:55:04 10° ENE
Gbstr 26 Del rocket 4.1 16:45:43 10° WNW 16:51:22 84° SSW 16:58:24 10° ESE
Abrixas rocket 2.7 16:48:59 10° SW 16:51:56 44° SSE 16:54:54 10° E
Unknown 4.2 16:48:40 10° W 16:52:41 47° N 16:56:43 10° ENE
ATLAS CENTAUR R/B 3.8 16:51:23 10° NNW 16:53:00 12° N 16:54:34 10° NNE
Meteor 2-10 4.1 16:50:03 10° S 16:54:56 51° E 16:59:49 10° NNE
NOSS 3-2 (A) 4.4 16:50:53 10° SSE 16:55:35 26° ESE 17:00:45 10° ENE
Cosmos 1844 4.1 16:50:04 10° SW 16:55:48 70° WNW 17:01:36 10° NNE
Unknown 4.3 16:52:01 10° W 16:56:02 47° N 17:00:04 10° ENE
Starlink (trailer) 4.3 16:53:40 10° W 16:57:41 47° N 17:01:43 10° ENE
CSL-04 Rocket 4.2 16:53:43 10° SE 16:58:46 38° ENE 17:03:47 10° N
Unknown 4.3 16:55:24 10° W 16:59:24 47° N 17:03:25 10° ENE
Meteor 1-11 4.3 16:54:17 10° N 17:00:01 61° ENE 17:05:46 10° SSE
Unknown 4.3 16:57:03 10° W 17:01:04 46° N 17:05:06 10° ENE
FengYun 1-2 T 4.4 16:55:53 10° SE 17:01:17 51° ENE 17:06:41 10° N
Cosmos 2058 Rocket 3.0 16:57:11 10° S 17:01:29 66° E 17:05:50 10° NNE
SJ 16-02 3.2 16:59:40 10° NNE 17:01:46 13° NE 17:03:51 10° ENE
Cosmos 2084 Rocket 3.9 16:58:47 10° NW 17:03:04 45° NE 17:07:17 10° ESE
Unknown 4.3 17:02:06 10° WNW 17:06:07 46° N 17:09:59 11° ENE
Ariane Rocket 4.1 17:02:42 10° ESE 17:06:39 23° ENE 17:10:37 10° N
Cosmos 1953 3.5 17:02:49 10° SSW 17:06:45 47° WNW 17:10:42 10° N
YAOGAN 6 3.1 17:04:06 10° SE 17:07:30 38° ENE 17:10:53 10° N
Unknown 4.3 17:03:44 10° WNW 17:07:44 46° N 17:11:32 11° ENE
Unknown 4.3 17:05:27 10° WNW 17:09:27 46° N 17:13:11 12° ENE
Unknown 4.3 17:07:02 10° WNW 17:11:04 46° N 17:14:45 12° ENE
Unknown 3.9 17:08:22 10° WNW 17:12:06 47° N 17:15:18 13° E
Unknown 4.3 17:08:45 10° WNW 17:12:46 45° N 17:16:20 13° ENE
COSMO-SKYMED 1 2.9 17:09:27 10° NNE 17:13:38 43° E 17:17:46 10° S
Unknown 4.3 17:10:33 10° WNW 17:14:33 45° N 17:18:02 13° ENE
Cosmos 1833 Rocket 2.7 17:11:25 10° NNW 17:17:04 80° ENE 17:22:42 10° SSE
Unknown 4.3 17:13:53 10° WNW 17:17:53 45° N 17:21:14 14° ENE
Unknown 4.3 17:15:26 10° WNW 17:19:26 45° N 17:22:43 14° ENE
Cosmos 1339 Rocket 4.5 17:15:05 10° S 17:21:02 60° E 17:27:07 10° NNE
NOSS 3-2 (C) 4.3 17:17:17 10° SSE 17:22:00 26° ESE 17:27:00 11° ENE
Unknown 4.3 17:18:42 10° WNW 17:22:42 45° N 17:25:50 15° ENE
ASTEX 1 3.4 17:17:52 10° N 17:22:51 75° E 17:27:50 10° S
BREEZE-M DEB (TANK) 4.1 17:13:35 10° SW 17:25:13 40° SSE 17:28:14 16° E
Unknown 4.3 17:22:07 10° WNW 17:26:08 45° N 17:29:07 17° ENE
Cosmos 1777 Rocket 4.4 17:21:19 10° NNW 17:26:30 66° WSW 17:31:38 10° S
Okean-O 3.5 17:23:28 10° S 17:27:48 53° W 17:32:10 10° NNW
Unknown 4.3 17:23:48 10° WNW 17:27:48 45° N 17:30:43 17° ENE
CZ-4 R/B 4.3 17:24:40 10° SSE 17:28:46 77° ENE 17:32:55 10° N
Unknown 4.3 17:25:29 10° WNW 17:29:29 45° N 17:32:19 18° ENE
Unknown 4.3 17:27:10 10° WNW 17:31:11 45° N 17:33:56 18° ENE
Lacrosse 5 2.0 17:26:22 10° WNW 17:31:26 77° SW 17:36:29 10° SE
Unknown 3.8 17:30:01 10° WNW 17:33:21 52° SSW 17:36:20 12° SE
Cosmos 1076 Rocket 3.8 17:30:12 10° N 17:34:25 44° ENE 17:38:34 10° SSE
Unknown 4.2 17:30:31 10° WNW 17:34:31 45° N 17:37:08 20° ENE
Cosmos 1605 Rocket 4.0 17:28:35 10° N 17:34:49 90° WSW 17:40:55 10° S
Unknown 4.2 17:32:14 10° WNW 17:36:15 46° N 17:38:47 20° ENE
Cosmos 2058 3.5 17:32:52 10° N 17:36:45 34° ENE 17:40:36 10° SE
Unknown 3.8 17:33:36 10° WNW 17:37:26 52° NNE 17:39:36 23° E
SKYMED 3 4.5 17:33:18 10° NNE 17:37:40 76° ESE 17:42:00 10° S
Unknown 4.2 17:33:49 10° WNW 17:37:49 46° N 17:40:17 21° ENE
Cosmos 1300 3.3 17:34:23 10° SSE 17:37:51 34° E 17:41:21 10° NNE
Unknown 4.2 17:35:26 10° WNW 17:39:26 46° N 17:41:50 21° ENE
Unknown 4.2 17:37:10 10° WNW 17:41:11 46° N 17:43:30 22° ENE
Okean 3 Rocket 4.5 17:38:30 10° N 17:42:25 28° ENE 17:44:13 21° ESE
Unknown 4.2 17:38:39 10° WNW 17:42:39 46° N 17:44:55 23° ENE
Unknown 4.2 17:41:57 10° WNW 17:45:58 46° N 17:48:05 24° ENE
FALCON 9 DEB 3.9 17:42:43 10° WNW 17:46:06 49° SSW 17:48:30 17° SE
ATLAS 3B R/B 3.4 17:41:25 10° S 17:47:03 29° ESE 17:50:13 20° ENE
CZ-2D R/B 3.4 17:43:34 10° SSE 17:47:18 50° ENE 17:51:05 10° N
Unknown 4.2 17:43:37 10° WNW 17:47:38 46° N 17:49:41 25° ENE
CSL-04 Debris 4.2 17:42:54 10° SSE 17:48:22 90° ENE 17:53:55 10° NNW
SL-27 R/B 4.4 17:46:21 10° NNE 17:47:30 15° NNE 17:47:30 15° NNE
Unknown 4.2 17:45:31 10° WNW 17:49:33 47° N 17:51:29 26° ENE
Cosmos 1727 Rocket 3.9 17:43:39 10° S 17:49:45 68° E 17:55:53 10° NNE
Cosmos 2082 Rocket 2.3 17:44:24 10° NNW 17:50:09 84° WSW 17:55:50 10° SSE
Unknown 4.2 17:47:01 10° WNW 17:51:02 46° N 17:52:55 27° ENE
Cosmos 2173 Rocket 4.1 17:45:32 10° N 17:51:37 51° ENE 17:57:35 10° SSE
Cosmos 1812 Rocket 3.5 17:47:49 10° S 17:52:13 67° E 17:56:40 10° NNE
Unknown 4.2 17:48:38 10° WNW 17:52:40 46° N 17:54:29 28° ENE
Cosmos 1939 Rocket 3.0 17:48:53 10° SSE 17:52:47 53° ENE 17:56:47 10° N
Cosmos 2151 3.9 17:49:23 10° N 17:53:07 27° ENE 17:53:14 27° ENE
IRS-1A Rocket 4.4 17:48:02 10° SE 17:53:17 48° ENE 17:58:35 10° N
CENTAUR R/B 3.1 17:48:33 10° S 17:53:45 32° ESE 17:56:59 21° ENE
Unknown 4.0 17:51:13 10° WNW 17:55:11 50° N 17:56:45 31° ENE
Unknown 4.2 17:52:01 10° WNW 17:56:02 47° N 17:57:42 29° ENE
Unknown 4.2 17:53:37 10° WNW 17:57:39 47° N 17:59:15 30° ENE
Unknown 4.2 17:55:19 10° WNW 17:59:21 47° N 18:00:52 31° ENE
BREEZE-M DEB (TANK) 2.6 17:55:30 10° SW 17:59:25 44° SSE 17:59:43 41° SE
Falcon 9 debris 4.5 17:56:22 10° WNW 17:59:33 35° SW 18:01:35 18° SSE
Unknown 4.1 17:57:01 10° WNW 18:01:02 48° N 18:02:29 32° ENE
SKYMED 2 4.0 17:57:26 10° N 18:01:46 63° WNW 18:06:02 10° SSW
Envisat 4.3 17:57:52 10° S 18:02:42 43° W 18:07:33 10° NNW
YAOGAN 1 2.9 17:58:33 10° S 18:02:51 66° WSW 18:07:11 10° NNW
Cosmos 1802 Rocket 4.2 17:56:50 10° N 18:03:08 52° ENE 18:09:20 10° SSE
Unknown 4.1 18:00:03 10° WNW 18:03:25 43° SW 18:05:02 25° SSE
Unknown 4.1 18:00:22 10° WNW 18:04:24 48° N 18:05:42 35° ENE
Unknown 4.0 18:00:51 10° WNW 18:04:51 49° N 18:06:04 36° ENE
Unknown 4.1 18:01:20 10° WNW 18:05:23 49° N 18:06:38 36° ENE
Unknown 4.1 18:02:07 10° WNW 18:06:10 50° N 18:07:23 37° ENE
Cosmos 44 3.4 18:02:05 10° SSW 18:06:49 48° ESE 18:08:22 35° ENE
Unknown 4.1 18:03:54 10° WNW 18:07:58 50° N 18:09:06 38° ENE
Unknown 4.1 18:07:03 10° WNW 18:11:06 49° N 18:12:06 40° NE
Cosmos 1898 Rocket 3.4 18:06:08 10° NNW 18:11:25 68° ENE 18:14:40 24° SE
H-2A R/B 2.9 18:11:49 30° ENE 18:12:04 30° ENE 18:16:44 10° N
Unknown 3.3 18:08:28 10° WNW 18:12:13 84° SSW 18:12:58 55° SE
In-Cosmos 22 Rocket 4.0 18:07:29 10° N 18:12:54 69° ENE 18:18:26 10° SSE
Cosmos 1000 Rocket 4.5 18:07:30 10° SSE 18:13:32 57° E 18:19:39 10° NNE
BREEZE M DEB (TANK) 3.8 18:11:55 10° W 18:14:25 30° SSW 18:17:54 16° SSE
Unknown 4.0 18:10:22 10° WNW 18:14:25 50° N 18:15:17 42° NE
Cosmos 1725 Rocket 4.3 18:09:06 10° N 18:15:05 43° ENE 18:17:33 30° ESE
Unknown 4.0 18:12:01 10° WNW 18:16:04 51° N 18:16:51 43° NE
ATLAS 5 CENTAUR R/B 4.0 18:13:31 10° WNW 18:16:50 18° NNW 18:20:26 10° NNE
Unknown 4.0 18:13:41 10° WNW 18:17:45 51° N 18:18:28 45° NE
Meteor 2-1 Rocket 4.1 18:12:26 10° S 18:17:52 63° E 18:23:24 10° NNE
Unknown 4.0 18:15:19 10° WNW 18:19:23 51° NNE 18:20:02 46° NE
Cosmos 2100 Rocket 3.9 18:14:35 10° N 18:20:48 85° E 18:26:58 10° S
USA 116 4.2 18:19:16 10° N 18:22:25 50° WNW 18:25:50 10° SSW
USA 238 DEB 3.7 18:16:33 10° SW 18:23:16 82° NW 18:29:24 14° NE
USA 238 3.7 18:16:39 10° SW 18:23:23 82° NW 18:29:28 14° NE
CZ-4 R/B 3.5 18:22:15 10° SSW 18:25:57 29° W 18:29:41 10° NNW
Unknown 3.9 18:22:01 10° WNW 18:26:06 53° NNE 18:26:27 51° NE
Abrixas rocket 2.8 18:24:39 10° W 18:27:03 51° W 18:27:03 51° W
Unknown 3.9 18:23:42 10° WNW 18:27:47 54° NNE 18:28:04 53° NNE
Unknown 3.8 18:25:21 10° WNW 18:29:25 54° NNE 18:29:39 54° NNE
Unknown 3.8 18:26:59 10° WNW 18:31:05 55° NNE 18:31:13 55° NNE
Cosmos 2278 Rocket 3.4 18:26:45 10° WSW 18:32:07 42° NW 18:37:32 10° NNE
Unknown 3.8 18:28:38 10° WNW 18:32:44 56° NNE 18:32:48 56° NNE
ATLAS CENTAUR R/B 3.1 18:30:01 10° NNW 18:33:06 22° NNE 18:33:06 22° NNE
Unknown 3.9 18:31:59 10° WNW 18:36:01 57° N 18:36:01 57° N
Cosmos 2016 Rocket 3.9 18:30:27 10° N 18:36:46 74° E 18:41:16 20° SSE
Cosmos 2297 3.6 18:31:14 10° SSW 18:36:56 83° ESE 18:41:31 17° NNE
Starlink (trailer) 3.9 18:33:37 10° WNW 18:37:35 57° N 18:37:35 57° N
Unknown 3.9 18:35:20 10° WNW 18:39:13 57° N 18:39:13 57° N
Unknown 3.9 18:36:59 10° WNW 18:40:49 57° N 18:40:49 57° N
SJ 16-02 1.2 18:36:42 10° NNW 18:41:02 83° NE 18:41:02 83° NE
Ariane Rocket 3.5 18:40:11 10° S 18:45:13 60° WSW 18:50:18 10° NNW
SL-08 R/B 4.3 18:39:28 10° N 18:45:36 73° E 18:47:43 43° SSE
NOSS 3-2 (A) 3.6 18:39:53 10° SW 18:45:46 71° NW 18:50:13 22° NE
ARGOS 3.5 18:46:31 48° NE 18:46:31 48° NE 18:51:10 10° N
Unknown 4.0 18:42:00 10° WNW 18:45:38 56° NNW 18:45:38 56° NNW
Unknown 4.1 18:43:38 10° WNW 18:47:11 55° NNW 18:47:11 55° NNW
Unknown 4.1 18:45:21 10° WNW 18:48:50 54° NNW 18:48:50 54° NNW
Cosmos 468 Rocket 3.9 18:44:50 10° SSW 18:50:07 88° ESE 18:52:10 39° NNE
Unknown 4.2 18:46:50 10° WNW 18:49:50 50° W 18:49:50 50° W
Unknown 4.2 18:46:55 10° WNW 18:50:24 54° NNW 18:50:24 54° NNW
Unknown 4.2 18:48:38 10° WNW 18:51:59 52° NW 18:51:59 52° NW
Cosmos 1892 4.0 18:49:55 10° NNW 18:52:12 34° NNW 18:52:12 34° NNW
Unknown 4.3 18:50:24 10° WNW 18:53:41 51° NW 18:53:41 51° NW
Unknown 4.4 18:53:43 10° WNW 18:56:52 48° NW 18:56:52 48° NW
Cosmos 2150 Rocket 4.5 18:53:19 10° NNW 18:57:43 49° NNE 18:57:43 49° NNE
Unknown 4.5 18:55:16 10° WNW 18:58:22 47° NW 18:58:22 47° NW
ADEOS Rocket 3.4 18:53:51 10° NNE 19:01:26 60° E 19:03:33 45° SSE
Cosmos 1937 Rocket 3.7 18:56:20 10° NNW 19:01:27 67° WSW 19:02:14 57° SSW
Cosmos 1766 Rocket 4.3 19:02:44 10° NNW 19:06:19 51° NW 19:06:19 51° NW
CZ-2C R/B 3.9 19:13:11 44° NNE 19:13:11 44° NNE 19:17:15 10° N
NOSS 3-2 (C) 3.6 19:06:20 10° SW 19:12:13 71° NW 19:14:29 42° NNE
Lacrosse 5 4.2 19:10:29 10° W 19:13:42 17° WSW 19:16:09 12° SSW
Cosmos 2061 Rocket 4.5 19:09:10 10° NNW 19:15:16 58° W 19:19:54 18° SSW
Cosmos 1238 Rocket 4.3 19:08:45 10° N 19:14:03 53° NNE 19:14:03 53° NNE
Resurs 01 Rocket 4.1 19:29:47 15° N 19:29:47 15° N 19:30:31 10° N
Cosmos 1763 Rocket 4.2 19:21:14 10° SW 19:25:17 48° WSW 19:25:17 48° WSW
Cosmos 2227 Rocket 4.5 19:27:28 10° N 19:28:51 13° NNE 19:28:51 13° NNE
Cosmos 2297 Rocket 4.5 19:31:54 10° N 19:33:19 13° NNE 19:33:19 13° NNE
SPOT 3 Rocket 4.4 19:36:38 49° WNW 19:36:38 49° WNW 19:40:54 10° NNW
ATLAS 3B R/B 2.7 19:30:31 10° SW 19:37:13 72° NW 19:37:32 70° NNW
CENTAUR R/B 2.9 19:37:48 10° SW 19:43:55 64° NW 19:44:14 64° NNW
H-2A R/B 3.3 19:52:28 41° WNW 19:52:28 41° WNW 19:56:31 10° NNW
ATLAS 5 CENTAUR R/B 4.3 19:59:54 10° NNW 20:01:57 16° N 20:01:57 16° N
ATLAS CENTAUR R/B 4.5 20:08:42 10° NW 20:09:18 13° NW 20:09:18 13° NW
SJ 16-02 4.5 20:17:32 10° WNW 20:18:03 11° W 20:18:03 11° W
